Location: Newark
(49.5647°N, 8.2922°E)
Time: 18:53:46
(UTC+00:00)

Vanguard 1 Rocket - All Passes

Search period start: 28 February 2020 00:00
Search period end: 09 March 2020 00:00
Orbit: 650 x 4226 km, 34.3° (Epoch: 27 February)

Date Brightness Start Highest point End Pass type
(mag) Time Alt. Az. Time Alt. Az. Time Alt. Az.
28 Feb - 01:05:15 10° SW 01:12:40 23° S 01:17:35 10° SE night (unlit)
28 Feb - 03:33:00 10° SW 03:36:42 16° SSW 03:39:42 10° SSE visible
28 Feb - 21:29:25 10° S 21:35:36 13° SSE 21:40:33 10° SE visible
28 Feb - 23:52:31 10° SW 00:01:34 24° S 00:07:24 10° ESE night (unlit)
29 Feb - 02:20:08 10° WSW 02:26:12 22° SSW 02:30:27 10° SE visible
29 Feb - 22:39:59 10° SSW 22:50:06 22° SSE 22:56:47 10° ESE visible
01 Mar - 01:07:07 10° SW 01:15:26 26° S 01:20:45 10° SE night (unlit)
01 Mar - 03:35:51 10° WSW 03:39:19 14° SSW 03:42:09 10° S visible
01 Mar - 21:28:08 10° SSW 21:38:17 19° SSE 21:45:26 10° ESE visible
01 Mar - 23:53:54 10° SW 00:04:20 28° S 00:10:43 10° ESE night (unlit)
02 Mar - 02:22:32 10° WSW 02:28:54 22° SSW 02:33:18 10° SSE visible
02 Mar - 20:17:58 10° S 20:26:10 14° SSE 20:32:38 10° ESE visible
02 Mar - 22:40:42 10° SW 22:52:50 27° SSE 23:00:19 10° ESE visible
03 Mar - 01:09:08 10° WSW 01:18:11 28° S 01:23:47 10° SE night (unlit)
03 Mar - 03:39:00 10° WSW 03:41:53 13° SSW 03:44:18 10° S visible
03 Mar - 21:27:58 10° SSW 21:40:56 24° SSE 21:49:22 10° ESE visible
03 Mar - 23:55:29 10° SW 00:07:03 31° S 00:13:53 10° ESE night (unlit)
04 Mar - 02:25:00 10° WSW 02:31:31 21° SSW 02:36:01 10° SSE visible
04 Mar - 20:16:19 10° S 20:28:42 20° SSE 20:37:32 10° ESE visible
04 Mar - 22:41:47 10° SW 22:55:31 32° S 23:03:37 10° ESE visible
05 Mar - 01:11:15 10° WSW 01:20:51 29° SSW 01:26:42 10° SE night (unlit)
05 Mar - 03:42:49 10° SW 03:44:19 11° SW 03:45:42 10° SSW visible
05 Mar - 19:06:55 10° S 19:16:16 14° SE 19:23:51 10° ESE visible
05 Mar - 21:28:23 10° SSW 21:43:32 29° SSE 21:52:53 10° ESE visible
05 Mar - 23:57:15 10° WSW 00:09:45 34° S 00:16:55 10° ESE visible
06 Mar - 02:27:36 10° WSW 02:34:03 20° SSW 02:38:35 10° SSE visible
06 Mar - 20:15:48 10° SSW 20:31:10 25° SSE 20:41:30 10° ESE visible
06 Mar - 22:43:07 10° SW 22:58:09 36° S 23:06:45 10° ESE visible
07 Mar - 01:13:28 10° WSW 01:23:28 29° SSW 01:29:31 10° SE night (unlit)
07 Mar - 19:04:44 10° S 19:18:35 20° SSE 19:28:58 10° ESE visible
07 Mar - 21:29:11 10° SW 21:46:05 34° SSE 21:56:10 10° ESE visible
07 Mar - 23:59:08 10° WSW 00:12:22 36° S 00:19:52 10° SE visible
08 Mar - 02:30:21 10° WSW 02:36:30 18° SW 02:40:55 10° S night (unlit)
08 Mar - 17:56:46 10° SSE 18:05:57 14° SE 18:13:49 10° ESE visible
08 Mar - 20:15:55 10° SSW 20:33:36 31° SSE 20:45:01 10° ESE visible
08 Mar - 22:44:38 10° WSW 23:00:45 39° S 23:09:48 10° ESE visible
